EW4463 Weather Reports


Display with metric or nautical units.
time (UTC)temp
F
wind
direction
speed
MPH
gust
MPH
rain 1hr
in
rain 24hr
in
rain mn
in
humidity
%
barometer
mb
20260503213914 67 267 16.0 26.0 0.00 0.00 0.00 49 1005.6
20260503213412 68 269 20.0 23.0 0.00 0.00 0.00 47 1005.4
20260503212908 67 280 17.0 27.0 0.00 0.00 0.00 48 1005.5
20260503212406 67 285 24.0 29.0 0.00 0.00 0.00 48 1005.4
20260503211903 67 270 22.0 29.0 0.00 0.00 0.00 48 1005.3
20260503211400 67 272 19.0 32.0 0.00 0.00 0.00 49 1005.7
20260503210855 67 277 21.0 26.0 0.00 0.00 0.00 49 1005.9
20260503210353 67 287 19.0 31.0 0.00 0.00 0.00 49 1005.8
20260503205847 67 259 24.0 31.0 0.00 0.00 0.00 47 1005.7
20260503205344 66 280 13.0 23.0 0.00 0.00 0.00 50 1006.0
20260503204840 66 273 22.0 29.0 0.00 0.00 0.00 49 1006.1
20260503204338 67 274 18.0 26.0 0.00 0.00 0.00 48 1005.8
20260503203835 67 262 18.0 21.0 0.00 0.00 0.00 48 1005.9
20260503203333 66 276 18.0 24.0 0.00 0.00 0.00 48 1006.1
20260503202829 66 249 16.0 24.0 0.00 0.00 0.00 48 1006.3
20260503202328 66 265 27.0 31.0 0.00 0.00 0.00 46 1006.4
20260503201826 66 273 25.0 30.0 0.00 0.00 0.00 48 1006.4
20260503201322 66 283 26.0 34.0 0.00 0.00 0.00 48 1006.2
20260503200820 66 266 26.0 32.0 0.00 0.00 0.00 48 1006.4
20260503200315 65 282 24.0 30.0 0.00 0.00 0.00 48 1006.8
20260503195813 66 271 21.0 26.0 0.00 0.00 0.00 49 1006.8
20260503195309 65 288 22.0 25.0 0.00 0.00 0.00 49 1006.9
20260503194807 65 272 25.0 34.0 0.00 0.00 0.00 50 1006.7
20260503194302 65 283 22.0 33.0 0.00 0.00 0.00 51 1007.0
20260503193759 64 270 24.0 41.0 0.00 0.00 0.00 51 1007.1
20260503193255 66 272 26.0 33.0 0.00 0.00 0.00 50 1006.9
20260503192751 65 246 22.0 27.0 0.00 0.00 0.00 52 1007.2
20260503192246 64 280 24.0 34.0 0.00 0.00 0.00 52 1007.2
20260503191743 63 280 24.0 30.0 0.00 0.00 0.00 54 1007.4
20260503191240 62 256 26.0 30.0 0.00 0.00 0.00 54 1007.3
20260503190737 65 270 30.0 34.0 0.00 0.00 0.00 53 1007.5
20260503190234 63 264 24.0 32.0 0.00 0.00 0.00 53 1007.6
20260503185731 63 264 29.0 33.0 0.00 0.00 0.00 53 1007.5
20260503185226 64 275 29.0 37.0 0.00 0.00 0.00 53 1007.8
20260503184721 62 295 24.0 32.0 0.00 0.00 0.00 54 1007.4
20260503184218 62 253 27.0 35.0 0.00 0.00 0.00 54 1007.6
20260503183714 62 276 31.0 37.0 0.00 0.00 0.00 53 1007.6
20260503183212 62 274 24.0 43.0 0.00 0.00 0.00 55 1007.7
20260503182710 62 261 32.0 46.0 0.00 0.00 0.00 53 1007.6
20260503182208 63 262 37.0 43.0 0.00 0.00 0.00 49 1007.3
20260503181704 63 260 24.0 30.0 0.00 0.00 0.00 50 1007.9
20260503181201 63 251 27.0 31.0 0.00 0.00 0.00 49 1007.8
20260503180658 63 211 32.0 39.0 0.00 0.00 0.00 48 1007.8
20260503180156 63 273 24.0 35.0 0.00 0.00 0.00 52 1007.9
20260503175653 62 244 18.0 32.0 0.00 0.00 0.00 53 1008.1
20260503175150 62 285 22.0 34.0 0.00 0.00 0.00 53 1008.1
20260503174646 61 258 13.0 26.0 0.00 0.00 0.00 56 1008.4
20260503174144 61 250 20.0 32.0 0.00 0.00 0.00 54 1008.6
20260503173639 61 257 18.0 26.0 0.00 0.00 0.00 55 1008.9
20260503173135 61 256 22.0 29.0 0.00 0.00 0.00 56 1008.7
20260503172632 60 248 18.0 26.0 0.00 0.00 0.00 56 1008.8
20260503172130 60 261 19.0 37.0 0.00 0.00 0.00 59 1008.9
20260503171626 60 240 18.0 33.0 0.00 0.00 0.00 58 1009.2
20260503171123 60 233 11.0 22.0 0.00 0.00 0.00 59 1009.2
20260503170621 59 259 14.0 18.0 0.00 0.00 0.00 60 1009.2
20260503170117 59 224 10.0 23.0 0.00 0.00 0.00 61 1009.2
20260503151012 51 251 17.0 23.0 0.00 0.00 0.00 78 1011.2
20260503150509 51 258 18.0 27.0 0.00 0.00 0.00 77 1011.2
20260503131402 53 261 16.0 25.0 0.00 0.00 0.00 66 1011.5
20260503130859 53 273 20.0 31.0 0.00 0.00 0.00 65 1011.8
20260503130356 52 256 18.0 26.0 0.00 0.00 0.00 66 1011.7
20260503110755 47 258 12.0 17.0 0.00 0.00 0.00 65 1011.9
20260503110252 47 270 15.0 17.0 0.00 0.00 0.00 64 1012.3
20260503100219 47 271 9.0 16.0 0.00 0.00 0.00 63 1012.5
20260503090138 47 270 12.0 15.0 0.00 0.00 0.00 63 1012.6
20260503081608 48 278 11.0 13.0 0.00 0.00 0.00 61 1013.1
20260503081105 48 244 10.0 15.0 0.00 0.00 0.00 60 1013.3
20260503080600 48 266 11.0 14.0 0.00 0.00 0.00 60 1013.3
20260503072540 48 258 10.0 14.0 0.00 0.00 0.00 59 1013.4
20260503072037 48 206 10.0 13.0 0.00 0.00 0.00 59 1013.5
20260503071533 49 269 10.0 17.0 0.00 0.00 0.00 58 1013.5
20260503071030 49 253 14.0 16.0 0.00 0.00 0.00 55 1013.5
20260503070526 49 298 11.0 16.0 0.00 0.00 0.00 57 1013.4
20260503054945 50 265 12.0 17.0 0.00 0.00 0.00 55 1014.0
20260503054442 50 283 15.0 18.0 0.00 0.00 0.00 54 1013.9
20260503053939 50 270 16.0 18.0 0.00 0.00 0.00 54 1014.1
20260503053437 50 275 14.0 16.0 0.00 0.00 0.00 54 1014.1
20260503052933 50 278 12.0 15.0 0.00 0.00 0.00 56 1014.4
20260503052431 50 274 12.0 16.0 0.00 0.00 0.00 55 1014.2
20260503051927 50 285 10.0 13.0 0.00 0.00 0.00 56 1014.3
20260503051423 49 269 12.0 14.0 0.00 0.00 0.00 56 1014.2
20260503050920 49 277 14.0 16.0 0.00 0.00 0.00 55 1014.5
20260503050416 49 277 11.0 15.0 0.00 0.00 0.00 57 1014.3
20260503045914 50 276 13.0 20.0 0.00 0.00 0.00 55 1014.2
20260503045411 49 275 14.0 16.0 0.00 0.00 0.00 56 1014.2
20260503044908 49 270 12.0 17.0 0.00 0.00 0.00 57 1014.4
20260503044405 49 280 12.0 15.0 0.00 0.00 0.00 58 1014.4
20260503043902 49 275 13.0 15.0 0.00 0.00 0.00 57 1014.5
20260503043359 49 258 12.0 15.0 0.00 0.00 0.00 56 1014.4
20260503042855 49 269 13.0 15.0 0.00 0.00 0.00 57 1014.5
20260503042352 49 292 12.0 15.0 0.00 0.00 0.00 57 1014.6
20260503041848 49 274 12.0 15.0 0.00 0.00 0.00 57 1014.6
20260503041345 48 271 12.0 14.0 0.00 0.00 0.00 58 1014.6
20260503040843 48 271 11.0 13.0 0.00 0.00 0.00 59 1014.6
20260503040340 48 287 11.0 14.0 0.00 0.00 0.00 57 1014.9
20260503035837 48 267 10.0 13.0 0.00 0.00 0.00 59 1014.7
20260503035334 48 265 10.0 15.0 0.00 0.00 0.00 59 1015.0
20260503034831 48 274 10.0 11.0 0.00 0.00 0.00 59 1015.0
20260503034329 48 269 9.0 11.0 0.00 0.00 0.00 60 1014.9
20260503033826 48 271 10.0 11.0 0.00 0.00 0.00 60 1014.9
20260503033323 48 271 10.0 11.0 0.00 0.00 0.00 60 1015.0
20260503032821 48 256 9.0 11.0 0.00 0.00 0.00 60 1015.0
20260503032320 48 266 9.0 10.0 0.00 0.00 0.00 61 1015.0
20260503031816 48 268 10.0 11.0 0.00 0.00 0.00 60 1015.2
20260503031315 48 270 10.0 10.0 0.00 0.00 0.00 60 1015.3
20260503030810 48 273 9.0 10.0 0.00 0.00 0.00 60 1015.1
20260503030307 49 280 9.0 10.0 0.00 0.00 0.00 58 1015.4
20260503025804 49 254 9.0 11.0 0.00 0.00 0.00 57 1015.3
20260503025304 49 268 9.0 10.0 0.00 0.00 0.00 57 1015.4
20260503024758 49 264 7.0 9.0 0.00 0.00 0.00 58 1015.4
20260503024255 49 269 7.0 8.0 0.00 0.00 0.00 58 1015.3
20260503023752 49 259 8.0 10.0 0.00 0.00 0.00 54 1015.3
20260503023249 50 262 7.0 8.0 0.00 0.00 0.00 54 1015.3
20260503022745 50 251 7.0 8.0 0.00 0.00 0.00 54 1015.3
20260503022240 51 251 7.0 9.0 0.00 0.00 0.00 52 1015.3
20260503021737 51 267 5.0 8.0 0.00 0.00 0.00 52 1015.4
20260503021233 51 247 5.0 6.0 0.00 0.00 0.00 53 1015.4
20260503020731 51 249 7.0 8.0 0.00 0.00 0.00 51 1015.3
20260503020228 51 251 5.0 7.0 0.00 0.00 0.00 51 1015.3
20260503015724 52 257 6.0 7.0 0.00 0.00 0.00 50 1015.2
20260503015221 52 247 5.0 7.0 0.00 0.00 0.00 50 1015.3
20260503014717 52 233 5.0 7.0 0.00 0.00 0.00 50 1015.3
20260503014216 52 242 6.0 8.0 0.00 0.00 0.00 48 1015.2
20260503013712 52 260 6.0 8.0 0.00 0.00 0.00 48 1015.0
20260503013210 53 250 5.0 6.0 0.00 0.00 0.00 47 1015.1
20260503012707 53 250 6.0 7.0 0.00 0.00 0.00 46 1015.2
20260503012204 52 257 5.0 6.0 0.00 0.00 0.00 48 1015.0
20260503011701 52 281 4.0 6.0 0.00 0.00 0.00 50 1015.2
20260503011158 52 280 5.0 7.0 0.00 0.00 0.00 50 1015.1
20260503010654 52 267 5.0 7.0 0.00 0.00 0.00 50 1015.2
20260503010151 53 282 5.0 7.0 0.00 0.00 0.00 50 1015.2
20260503005648 53 282 6.0 6.0 0.00 0.00 0.00 51 1015.3
20260503005145 53 280 7.0 8.0 0.00 0.00 0.00 50 1015.1
20260503004641 53 274 7.0 8.0 0.00 0.00 0.00 50 1015.0
20260503004140 54 274 9.0 10.0 0.00 0.00 0.00 46 1015.0
20260503003637 55 280 7.0 9.0 0.00 0.00 0.00 48 1015.0
20260503003134 54 283 7.0 8.0 0.00 0.00 0.00 50 1015.1
20260503002631 55 283 8.0 10.0 0.00 0.00 0.00 49 1015.2
20260503002127 55 283 7.0 9.0 0.00 0.00 0.00 48 1015.1
20260503001623 56 283 8.0 9.0 0.00 0.00 0.00 48 1015.1
20260503001120 57 286 5.0 8.0 0.00 0.00 0.00 47 1015.2
20260503000618 57 282 7.0 10.0 0.00 0.00 0.00 45 1015.0
20260503000115 57 296 9.0 15.0 0.00 0.00 0.00 42 1015.1
20260502235612 57 319 12.0 14.0 0.00 0.00 0.00 42 1015.1
20260502235110 57 316 11.0 15.0 0.00 0.00 0.00 41 1015.3
20260502234605 56 277 11.0 15.0 0.00 0.00 0.00 42 1015.3
20260502234103 57 297 12.0 17.0 0.00 0.00 0.00 41 1015.3
20260502233603 57 273 11.0 15.0 0.00 0.00 0.00 42 1015.3
20260502233101 57 279 13.0 17.0 0.00 0.00 0.00 41 1015.4
20260502232556 57 307 14.0 17.0 0.00 0.00 0.00 41 1015.4
20260502232054 57 293 12.0 16.0 0.00 0.00 0.00 43 1015.4
20260502231551 58 281 12.0 14.0 0.00 0.00 0.00 41 1015.5
20260502231049 58 274 11.0 17.0 0.00 0.00 0.00 38 1015.5
20260502230547 57 290 10.0 14.0 0.00 0.00 0.00 43 1015.5
20260502230045 57 296 17.0 17.0 0.00 0.00 0.00 40 1015.7
20260502225540 58 291 18.0 23.0 0.00 0.00 0.00 39 1015.5
20260502225038 58 273 17.0 20.0 0.00 0.00 0.00 40 1015.5
20260502224534 57 280 11.0 15.0 0.00 0.00 0.00 42 1015.7
20260502224031 56 284 11.0 18.0 0.00 0.00 0.00 41 1016.0
20260502223529 57 284 14.0 20.0 0.00 0.00 0.00 40 1015.7
20260502223027 57 62 12.0 14.0 0.00 0.00 0.00 42 1015.8
20260502222524 58 253 16.0 17.0 0.00 0.00 0.00 40 1015.7
20260502222020 57 9 12.0 20.0 0.00 0.00 0.00 40 1015.7
20260502221516 56 339 14.0 16.0 0.00 0.00 0.00 42 1015.9
20260502221013 56 255 17.0 22.0 0.00 0.00 0.00 41 1015.9
20260502220508 56 290 11.0 13.0 0.00 0.00 0.00 43 1016.0
20260502220006 56 336 11.0 14.0 0.00 0.00 0.00 43 1016.2
20260502215503 56 274 13.0 14.0 0.00 0.00 0.00 41 1016.2
20260502215000 57 288 15.0 17.0 0.00 0.00 0.00 43 1016.0
20260502214457 57 296 14.0 18.0 0.00 0.00 0.00 42 1016.3